Regional Weather Roundup
Issued by NWS

Home | Current Version | Previous Version | Graphics & Text | Print | Product List | Glossary On
Versions: 1 2 3 4 5 6 7 8 9 10 11 12 13 14 15 16 17 18 19 20 21 22 23 24 25 26 27 28 29 30 31 32 33 34 35 36 37 38 39 40 41 42 43 44 45 46 47 48 49 50
000
ASUS43 KTOP 250259
RWRKS

WEATHER ROUNDUP FOR KANSAS
NATIONAL WEATHER SERVICE GOODLAND KS
900 PM CST SAT JAN 24 2015

NOTE:  "FAIR" INDICATES FEW OR NO CLOUDS BELOW 12,000 FEET WITH NO
SIGNIFICANT WEATHER AND/OR OBSTRUCTIONS TO VISIBILITY.

KSZ001>006-013>018-027>032-041>047-250400-
NORTHWEST KANSAS

CITY           SKY/WX    TMP DP  RH WIND       PRES   REMARKS
GOODLAND       CLOUDY    45  32  60 NW23      29.98R
HAYS           CLOUDY    48  34  57 NW18      29.85S
HILL CITY      CLOUDY    48  34  58 NW15G24   29.86S
RUSSELL        CLOUDY    48  41  76 W15       29.82S
$$

KSZ061>065-074>080-084>089-250400-
SOUTHWEST KANSAS

CITY           SKY/WX    TMP DP  RH WIND       PRES   REMARKS
DODGE CITY     CLOUDY    48  26  42 NW8       29.92F
ELKHART          N/A    N/A N/A N/A MISG        N/A
GARDEN CITY    CLOUDY    45  27  49 NW9       29.95R
GREAT BEND     CLOUDY    48  36  61 W13       29.86S
LIBERAL        CLOUDY    48  28  46 NW12      29.99R
$$

KSZ066>073-081>083-090>101-250400-
SOUTHEAST KANSAS

CITY           SKY/WX    TMP DP  RH WIND       PRES   REMARKS
CHANUTE        CLOUDY    50  32  50 SW12      29.79F
COFFEYVILLE    CLOUDY    49  31  49 S8        29.83F
HUTCHINSON     CLOUDY    54  30  40 NW12      29.82F
MEDICINE LODGE   N/A     54  26  34 W12       29.88R
NEWTON         CLOUDY    52  34  50 NW13      29.84F
PARSONS        CLOUDY    53  31  42 SW10      29.82F
WICHITA INTL   CLOUDY    59  27  29 W14       29.83R
WICHITA JABRA  CLOUDY    58  27  30 NW16G24   29.83R
WINFIELD       CLOUDY    51  30  44 SW12      29.84F
$$

KSZ007>012-019>026-033>040-048>060-102>105-250400-
NORTHEAST KANSAS

CITY           SKY/WX    TMP DP  RH WIND       PRES   REMARKS
CONCORDIA      CLOUDY    48  34  58 W14       29.75F
EMPORIA        LGT RAIN  50  40  68 NW10      29.79R
LAWRENCE       LGT RAIN  50  40  68 W14       29.75R
MANHATTAN      LGT RAIN  51  37  58 W9        29.75F
OLATHE IND     LGT RAIN  53  37  54 W24G33    29.75R
OLATHE EXE     CLOUDY    54  29  38 W15G24    29.72R
SALINA         CLOUDY    49  43  80 W13       29.80F
TOPEKA BILLARD CLOUDY    51  36  56 W7        29.74S
TOPEKA FORBES  LGT RAIN  51  41  68 SW12      29.74F
$$



USA.gov is the U.S. government's official web portal to all federal, state and local government web resources and services.